Location: Igon
(43.1667°N, 0.2333°W)
Time: 21:45:45
(UTC+00:00)

AQUARIUS - Pass Details

Date: 29 November 2020
Orbit: 650 x 652 km, 98.0° (Epoch: 20 January)

Event Time Altitude Azimuth Distance (km) Brightness Sun altitude
Rises 06:32:31 0° 12° (NNE) 2,983 7.4 -7.1°
Reaches altitude 10° 06:34:45 10° 11° (N) 2,067 6.6 -6.8°
Maximum altitude 06:39:15 82° 286° (WNW) 663 4.2 -6.0°
Drops below altitude 10° 06:43:44 10° 198° (SSW) 2,050 6.8 -5.3°
Sets 06:45:56 0° 197° (SSW) 2,956 7.7 -4.9°
